Year,Month,Day,Hour,Minute,Value (Times are PST for temperature in C)
2013,03,04,00,00,0.70
2013,03,04,00,01,0.70
2013,03,04,00,02,0.70
2013,03,04,00,03,0.70
2013,03,04,00,04,0.70
2013,03,04,00,05,0.70
2013,03,04,00,06,0.70
2013,03,04,00,07,0.70
2013,03,04,00,08,0.70
2013,03,04,00,09,0.70
2013,03,04,00,10,0.70
2013,03,04,00,11,0.70
2013,03,04,00,12,0.70
2013,03,04,00,13,0.70
2013,03,04,00,14,0.70
2013,03,04,00,15,0.70
2013,03,04,00,16,0.60
2013,03,04,00,17,0.60
2013,03,04,00,18,0.60
2013,03,04,00,19,0.70
2013,03,04,00,20,0.60
2013,03,04,00,21,0.70
2013,03,04,00,22,0.60
2013,03,04,00,23,0.60
2013,03,04,00,24,0.60
2013,03,04,00,25,0.60
2013,03,04,00,26,0.60
2013,03,04,00,27,0.60
2013,03,04,00,28,0.60
2013,03,04,00,29,0.50
2013,03,04,00,30,0.50
2013,03,04,00,31,0.50
2013,03,04,00,32,0.40
2013,03,04,00,33,0.40
2013,03,04,00,34,0.40
2013,03,04,00,35,0.30
2013,03,04,00,36,0.30
2013,03,04,00,37,0.30
2013,03,04,00,38,0.30
2013,03,04,00,39,0.30
2013,03,04,00,40,0.30
2013,03,04,00,41,0.30
2013,03,04,00,42,0.30
2013,03,04,00,43,0.30
2013,03,04,00,44,0.30
2013,03,04,00,45,0.30
2013,03,04,00,46,0.30
2013,03,04,00,47,0.30
2013,03,04,00,48,0.30
2013,03,04,00,49,0.20
2013,03,04,00,50,0.20
2013,03,04,00,51,0.20
2013,03,04,00,52,0.20
2013,03,04,00,53,0.20
2013,03,04,00,54,0.10
2013,03,04,00,55,0.10
2013,03,04,00,56,0.10
2013,03,04,00,57,0.00
2013,03,04,00,58,0.00
2013,03,04,00,59,0.00
2013,03,04,01,00,0.00
2013,03,04,01,01,-0.10
2013,03,04,01,02,-0.10
2013,03,04,01,03,-0.10
2013,03,04,01,04,-0.10
2013,03,04,01,05,-0.20
2013,03,04,01,06,-0.20
2013,03,04,01,07,-0.20
2013,03,04,01,08,-0.20
2013,03,04,01,09,-0.20
2013,03,04,01,10,-0.20
2013,03,04,01,11,-0.30
2013,03,04,01,12,-0.30
2013,03,04,01,13,-0.30
2013,03,04,01,14,-0.30
2013,03,04,01,15,-0.30
2013,03,04,01,16,-0.30
2013,03,04,01,17,-0.30
2013,03,04,01,18,-0.30
2013,03,04,01,19,-0.30
2013,03,04,01,20,-0.30
2013,03,04,01,21,-0.30
2013,03,04,01,22,-0.30
2013,03,04,01,23,-0.30
2013,03,04,01,24,-0.30
2013,03,04,01,25,-0.30
2013,03,04,01,26,-0.30
2013,03,04,01,27,-0.30
2013,03,04,01,28,-0.30
2013,03,04,01,29,-0.30
2013,03,04,01,30,-0.30
2013,03,04,01,31,-0.30
2013,03,04,01,32,-0.30
2013,03,04,01,33,-0.30
2013,03,04,01,34,-0.30
2013,03,04,01,35,-0.30
2013,03,04,01,36,-0.30
2013,03,04,01,37,-0.30
2013,03,04,01,38,-0.30
2013,03,04,01,39,-0.40
2013,03,04,01,40,-0.40
2013,03,04,01,41,-0.40
2013,03,04,01,42,-0.50
2013,03,04,01,43,-0.50
2013,03,04,01,44,-0.50
2013,03,04,01,45,-0.60
2013,03,04,01,46,-0.60
2013,03,04,01,47,-0.60
2013,03,04,01,48,-0.60
2013,03,04,01,49,-0.70
2013,03,04,01,50,-0.70
2013,03,04,01,51,-0.70
2013,03,04,01,52,-0.70
2013,03,04,01,53,-0.70
2013,03,04,01,54,-0.70
2013,03,04,01,55,-0.70
2013,03,04,01,56,-0.70
2013,03,04,01,57,-0.70
2013,03,04,01,58,-0.70
2013,03,04,01,59,-0.70
2013,03,04,02,00,-0.70
2013,03,04,02,01,-0.70
2013,03,04,02,02,-0.70
2013,03,04,02,03,-0.70
2013,03,04,02,04,-0.70
2013,03,04,02,05,-0.70
2013,03,04,02,06,-0.70
2013,03,04,02,07,-0.70
2013,03,04,02,08,-0.70
2013,03,04,02,09,-0.60
2013,03,04,02,10,-0.60
2013,03,04,02,11,-0.60
2013,03,04,02,12,-0.50
2013,03,04,02,13,-0.50
2013,03,04,02,14,-0.40
2013,03,04,02,15,-0.40
2013,03,04,02,16,-0.30
2013,03,04,02,17,-0.30
2013,03,04,02,18,-0.30
2013,03,04,02,19,-0.30
2013,03,04,02,20,-0.20
2013,03,04,02,21,-0.30
2013,03,04,02,22,-0.20
2013,03,04,02,23,-0.30
2013,03,04,02,24,-0.30
2013,03,04,02,25,-0.30
2013,03,04,02,26,-0.30
2013,03,04,02,27,-0.30
2013,03,04,02,28,-0.30
2013,03,04,02,29,-0.30
2013,03,04,02,30,-0.30
2013,03,04,02,31,-0.30
2013,03,04,02,32,-0.30
2013,03,04,02,33,-0.20
2013,03,04,02,34,-0.20
2013,03,04,02,35,-0.20
2013,03,04,02,36,-0.10
2013,03,04,02,37,-0.10
2013,03,04,02,38,0.00
2013,03,04,02,39,0.00
2013,03,04,02,40,0.10
2013,03,04,02,41,0.20
2013,03,04,02,42,0.30
2013,03,04,02,43,0.40
2013,03,04,02,44,0.40
2013,03,04,02,45,0.50
2013,03,04,02,46,0.60
2013,03,04,02,47,0.60
2013,03,04,02,48,0.70
2013,03,04,02,49,0.70
2013,03,04,02,50,0.70
2013,03,04,02,51,0.70
2013,03,04,02,52,0.70
2013,03,04,02,53,0.70
2013,03,04,02,54,0.70
2013,03,04,02,55,0.70
2013,03,04,02,56,0.70
2013,03,04,02,57,0.70
2013,03,04,02,58,0.70
2013,03,04,02,59,0.70
2013,03,04,03,00,0.70
2013,03,04,03,01,0.70
2013,03,04,03,02,0.70
2013,03,04,03,03,0.70
2013,03,04,03,04,0.70
2013,03,04,03,05,0.70
2013,03,04,03,06,0.70
2013,03,04,03,07,0.70
2013,03,04,03,08,0.70
2013,03,04,03,09,0.70
2013,03,04,03,10,0.70
2013,03,04,03,11,0.70
2013,03,04,03,12,0.70
2013,03,04,03,13,0.70
2013,03,04,03,14,0.70
2013,03,04,03,15,0.70
2013,03,04,03,16,0.60
2013,03,04,03,17,0.60
2013,03,04,03,18,0.70
2013,03,04,03,19,0.60
2013,03,04,03,20,0.70
2013,03,04,03,21,0.70
2013,03,04,03,22,0.70
2013,03,04,03,23,0.70
2013,03,04,03,24,0.70
2013,03,04,03,25,0.70
2013,03,04,03,26,0.70
2013,03,04,03,27,0.60
2013,03,04,03,28,0.60
2013,03,04,03,29,0.60
2013,03,04,03,30,0.60
2013,03,04,03,31,0.60
2013,03,04,03,32,0.60
2013,03,04,03,33,0.60
2013,03,04,03,34,0.60
2013,03,04,03,35,0.60
2013,03,04,03,36,0.60
2013,03,04,03,37,0.50
2013,03,04,03,38,0.50
2013,03,04,03,39,0.50
2013,03,04,03,40,0.50
2013,03,04,03,41,0.50
2013,03,04,03,42,0.40
2013,03,04,03,43,0.40
2013,03,04,03,44,0.40
2013,03,04,03,45,0.40
2013,03,04,03,46,0.40
2013,03,04,03,47,0.40
2013,03,04,03,48,0.40
2013,03,04,03,49,0.50
2013,03,04,03,50,0.50
2013,03,04,03,51,0.50
2013,03,04,03,52,0.50
2013,03,04,03,53,0.60
2013,03,04,03,54,0.60
2013,03,04,03,55,0.60
2013,03,04,03,56,0.60
2013,03,04,03,57,0.60
2013,03,04,03,58,0.60
2013,03,04,03,59,0.60
2013,03,04,04,00,0.60
2013,03,04,04,01,0.60
2013,03,04,04,02,0.60
2013,03,04,04,03,0.60
2013,03,04,04,04,0.60
2013,03,04,04,05,0.60
2013,03,04,04,06,0.60
2013,03,04,04,07,0.50
2013,03,04,04,08,0.50
2013,03,04,04,09,0.50
2013,03,04,04,10,0.50
2013,03,04,04,11,0.50
2013,03,04,04,12,0.50
2013,03,04,04,13,0.50
2013,03,04,04,14,0.40
2013,03,04,04,15,0.40
2013,03,04,04,16,0.40
2013,03,04,04,17,0.40
2013,03,04,04,18,0.40
2013,03,04,04,19,0.40
2013,03,04,04,20,0.40
2013,03,04,04,21,0.40
2013,03,04,04,22,0.40
2013,03,04,04,23,0.40
2013,03,04,04,24,0.40
2013,03,04,04,25,0.40
2013,03,04,04,26,0.40
2013,03,04,04,27,0.40
2013,03,04,04,28,0.40
2013,03,04,04,29,0.40
2013,03,04,04,30,0.40
2013,03,04,04,31,0.40
2013,03,04,04,32,0.40
2013,03,04,04,33,0.40
2013,03,04,04,34,0.40
2013,03,04,04,35,0.40
2013,03,04,04,36,0.40
2013,03,04,04,37,0.40
2013,03,04,04,38,0.40
2013,03,04,04,39,0.40
2013,03,04,04,40,0.40
2013,03,04,04,41,0.40
2013,03,04,04,42,0.40
2013,03,04,04,43,0.40
2013,03,04,04,44,0.50
2013,03,04,04,45,0.50
2013,03,04,04,46,0.50
2013,03,04,04,47,0.50
2013,03,04,04,48,0.50
2013,03,04,04,49,0.50
2013,03,04,04,50,0.50
2013,03,04,04,51,0.50
2013,03,04,04,52,0.50
2013,03,04,04,53,0.50
2013,03,04,04,54,0.50
2013,03,04,04,55,0.50
2013,03,04,04,56,0.50
2013,03,04,04,57,0.50
2013,03,04,04,58,0.50
2013,03,04,04,59,0.40
2013,03,04,05,00,0.50
2013,03,04,05,01,0.50
2013,03,04,05,02,0.40
2013,03,04,05,03,0.40
2013,03,04,05,04,0.40
2013,03,04,05,05,0.40
2013,03,04,05,06,0.40
2013,03,04,05,07,0.40
2013,03,04,05,08,0.40
2013,03,04,05,09,0.40
2013,03,04,05,10,0.40
2013,03,04,05,11,0.40
2013,03,04,05,12,0.40
2013,03,04,05,13,0.40
2013,03,04,05,14,0.40
2013,03,04,05,15,0.30
2013,03,04,05,16,0.30
2013,03,04,05,17,0.30
2013,03,04,05,18,0.30
2013,03,04,05,19,0.40
2013,03,04,05,20,0.40
2013,03,04,05,21,0.40
2013,03,04,05,22,0.40
2013,03,04,05,23,0.40
2013,03,04,05,24,0.40
2013,03,04,05,25,0.40
2013,03,04,05,26,0.40
2013,03,04,05,27,0.40
2013,03,04,05,28,0.40
2013,03,04,05,29,0.40
2013,03,04,05,30,0.40
2013,03,04,05,31,0.40
2013,03,04,05,32,0.40
2013,03,04,05,33,0.40
2013,03,04,05,34,0.30
2013,03,04,05,35,0.30
2013,03,04,05,36,0.30
2013,03,04,05,37,0.40
2013,03,04,05,38,0.40
2013,03,04,05,39,0.40
2013,03,04,05,40,0.40
2013,03,04,05,41,0.40
2013,03,04,05,42,0.40
2013,03,04,05,43,0.40
2013,03,04,05,44,0.40
2013,03,04,05,45,0.40
2013,03,04,05,46,0.30
2013,03,04,05,47,0.30
2013,03,04,05,48,0.30
2013,03,04,05,49,0.30
2013,03,04,05,50,0.30
2013,03,04,05,51,0.30
2013,03,04,05,52,0.30
2013,03,04,05,53,0.30
2013,03,04,05,54,0.30
2013,03,04,05,55,0.30
2013,03,04,05,56,0.30
2013,03,04,05,57,0.20
2013,03,04,05,58,0.20
2013,03,04,05,59,0.20
2013,03,04,06,00,0.20
2013,03,04,06,01,0.20
2013,03,04,06,02,0.20
2013,03,04,06,03,0.20
2013,03,04,06,04,0.20
2013,03,04,06,05,0.10
2013,03,04,06,06,0.10
2013,03,04,06,07,0.10
2013,03,04,06,08,0.10
2013,03,04,06,09,0.10
2013,03,04,06,10,0.10
2013,03,04,06,11,0.10
2013,03,04,06,12,0.10
2013,03,04,06,13,0.10
2013,03,04,06,14,0.10
2013,03,04,06,15,0.10
2013,03,04,06,16,0.10
2013,03,04,06,17,0.10
2013,03,04,06,18,0.10
2013,03,04,06,19,0.10
2013,03,04,06,20,0.10
2013,03,04,06,21,0.10
2013,03,04,06,22,0.10
2013,03,04,06,23,0.20
2013,03,04,06,24,0.20
2013,03,04,06,25,0.20
2013,03,04,06,26,0.20
2013,03,04,06,27,0.20
2013,03,04,06,28,0.20
2013,03,04,06,29,0.20
2013,03,04,06,30,0.20
2013,03,04,06,31,0.20
2013,03,04,06,32,0.20
2013,03,04,06,33,0.20
2013,03,04,06,34,0.20
2013,03,04,06,35,0.20
2013,03,04,06,36,0.20
2013,03,04,06,37,0.20
2013,03,04,06,38,0.20
2013,03,04,06,39,0.20
2013,03,04,06,40,0.20
2013,03,04,06,41,0.20
2013,03,04,06,42,0.20
2013,03,04,06,43,0.20
2013,03,04,06,44,0.20
2013,03,04,06,45,0.20
2013,03,04,06,46,0.20
2013,03,04,06,47,0.20
2013,03,04,06,48,0.20
2013,03,04,06,49,0.20
2013,03,04,06,50,0.20
2013,03,04,06,51,0.20
2013,03,04,06,52,0.20
2013,03,04,06,53,0.20
2013,03,04,06,54,0.20
2013,03,04,06,55,0.20
2013,03,04,06,56,0.20
2013,03,04,06,57,0.20
2013,03,04,06,58,0.20
2013,03,04,06,59,0.20
2013,03,04,07,00,0.30
2013,03,04,07,01,0.30
2013,03,04,07,02,0.30
2013,03,04,07,03,0.30
2013,03,04,07,04,0.30
2013,03,04,07,05,0.30
2013,03,04,07,06,0.30
2013,03,04,07,07,0.30
2013,03,04,07,08,0.30
2013,03,04,07,09,0.30
2013,03,04,07,10,0.30
2013,03,04,07,11,0.30
2013,03,04,07,12,0.30
2013,03,04,07,13,0.30
2013,03,04,07,14,0.30
2013,03,04,07,15,0.30
2013,03,04,07,16,0.30
2013,03,04,07,17,0.30
2013,03,04,07,18,0.30
2013,03,04,07,19,0.20
2013,03,04,07,20,0.20
2013,03,04,07,21,0.20
2013,03,04,07,22,0.20
2013,03,04,07,23,0.20
2013,03,04,07,24,0.20
2013,03,04,07,25,0.20
2013,03,04,07,26,0.20
2013,03,04,07,27,0.10
2013,03,04,07,28,0.10
2013,03,04,07,29,0.10
2013,03,04,07,30,0.20
2013,03,04,07,31,0.20
2013,03,04,07,32,0.20
2013,03,04,07,33,0.20
2013,03,04,07,34,0.20
2013,03,04,07,35,0.20
2013,03,04,07,36,0.30
2013,03,04,07,37,0.30
2013,03,04,07,38,0.30
2013,03,04,07,39,0.40
2013,03,04,07,40,0.40
2013,03,04,07,41,0.50
2013,03,04,07,42,0.50
2013,03,04,07,43,0.50
2013,03,04,07,44,0.60
2013,03,04,07,45,0.60
2013,03,04,07,46,0.70
2013,03,04,07,47,0.70
2013,03,04,07,48,0.70
2013,03,04,07,49,0.80
2013,03,04,07,50,0.80
2013,03,04,07,51,0.80
2013,03,04,07,52,0.90
2013,03,04,07,53,0.90
2013,03,04,07,54,1.00
2013,03,04,07,55,1.00
2013,03,04,07,56,1.00
2013,03,04,07,57,1.10
2013,03,04,07,58,1.10
2013,03,04,07,59,1.20
2013,03,04,08,00,1.20
2013,03,04,08,01,1.30
2013,03,04,08,02,1.30
2013,03,04,08,03,1.30
2013,03,04,08,04,1.30
2013,03,04,08,05,1.30
2013,03,04,08,06,1.30
2013,03,04,08,07,1.40
2013,03,04,08,08,1.40
2013,03,04,08,09,1.50
2013,03,04,08,10,1.60
2013,03,04,08,11,1.60
2013,03,04,08,12,1.70
2013,03,04,08,13,1.70
2013,03,04,08,14,1.80
2013,03,04,08,15,1.80
2013,03,04,08,16,1.80
2013,03,04,08,17,1.90
2013,03,04,08,18,1.90
2013,03,04,08,19,2.00
2013,03,04,08,20,2.00
2013,03,04,08,21,2.10
2013,03,04,08,22,2.10
2013,03,04,08,23,2.10
2013,03,04,08,24,2.20
2013,03,04,08,25,2.20
2013,03,04,08,26,2.20
2013,03,04,08,27,2.30
2013,03,04,08,28,2.30
2013,03,04,08,29,2.30
2013,03,04,08,30,2.40
2013,03,04,08,31,2.40
2013,03,04,08,32,2.40
2013,03,04,08,33,2.50
2013,03,04,08,34,2.50
2013,03,04,08,35,2.60
2013,03,04,08,36,2.60
2013,03,04,08,37,2.60
2013,03,04,08,38,2.70
2013,03,04,08,39,2.70
2013,03,04,08,40,2.80
2013,03,04,08,41,2.80
2013,03,04,08,42,2.90
2013,03,04,08,43,3.00
2013,03,04,08,44,3.00
2013,03,04,08,45,3.10
2013,03,04,08,46,3.10
2013,03,04,08,47,3.20
2013,03,04,08,48,3.20
2013,03,04,08,49,3.20
2013,03,04,08,50,3.30
2013,03,04,08,51,3.30
2013,03,04,08,52,3.30
2013,03,04,08,53,3.40
2013,03,04,08,54,3.40
2013,03,04,08,55,3.50
2013,03,04,08,56,3.50
2013,03,04,08,57,3.50
2013,03,04,08,58,3.60
2013,03,04,08,59,3.60
2013,03,04,09,00,3.70
2013,03,04,09,01,3.70
2013,03,04,09,02,3.70
2013,03,04,09,03,3.80
2013,03,04,09,04,3.80
2013,03,04,09,05,3.90
2013,03,04,09,06,3.90
2013,03,04,09,07,4.00
2013,03,04,09,08,4.10
2013,03,04,09,09,4.10
2013,03,04,09,10,4.20
2013,03,04,09,11,4.20
2013,03,04,09,12,4.30
2013,03,04,09,13,4.30
2013,03,04,09,14,4.30
2013,03,04,09,15,4.40
2013,03,04,09,16,4.40
2013,03,04,09,17,4.50
2013,03,04,09,18,4.50
2013,03,04,09,19,4.60
2013,03,04,09,20,4.60
2013,03,04,09,21,4.70
2013,03,04,09,22,4.70
2013,03,04,09,23,4.70
2013,03,04,09,24,4.70
2013,03,04,09,25,4.70
2013,03,04,09,26,4.70
2013,03,04,09,27,4.70
2013,03,04,09,28,4.70
2013,03,04,09,29,4.80
2013,03,04,09,30,4.80
2013,03,04,09,31,4.80
2013,03,04,09,32,4.90
2013,03,04,09,33,4.90
2013,03,04,09,34,5.00
2013,03,04,09,35,5.00
2013,03,04,09,36,5.10
2013,03,04,09,37,5.10
2013,03,04,09,38,5.10
2013,03,04,09,39,5.10
2013,03,04,09,40,5.10
2013,03,04,09,41,5.10
2013,03,04,09,42,5.10
2013,03,04,09,43,5.10
2013,03,04,09,44,5.10
2013,03,04,09,45,5.10
2013,03,04,09,46,5.10
2013,03,04,09,47,5.10
2013,03,04,09,48,5.10
2013,03,04,09,49,5.10
2013,03,04,09,50,5.10
2013,03,04,09,51,5.10
2013,03,04,09,52,5.10
2013,03,04,09,53,5.00
2013,03,04,09,54,5.00
2013,03,04,09,55,5.00
2013,03,04,09,56,4.90
2013,03,04,09,57,4.90
2013,03,04,09,58,4.80
2013,03,04,09,59,4.80
2013,03,04,10,00,4.80
2013,03,04,10,01,4.80
2013,03,04,10,02,4.90
2013,03,04,10,03,4.90
2013,03,04,10,04,5.00
2013,03,04,10,05,5.00
2013,03,04,10,06,5.10
2013,03,04,10,07,5.10
2013,03,04,10,08,5.10
2013,03,04,10,09,5.10
2013,03,04,10,10,5.10
2013,03,04,10,11,5.10
2013,03,04,10,12,5.00
2013,03,04,10,13,5.00
2013,03,04,10,14,4.90
2013,03,04,10,15,4.90
2013,03,04,10,16,4.90
2013,03,04,10,17,4.80
2013,03,04,10,18,4.80
2013,03,04,10,19,4.80
2013,03,04,10,20,4.80
2013,03,04,10,21,4.80
2013,03,04,10,22,4.80
2013,03,04,10,23,4.90
2013,03,04,10,24,4.90
2013,03,04,10,25,4.90
2013,03,04,10,26,4.90
2013,03,04,10,27,4.90
2013,03,04,10,28,4.90
2013,03,04,10,29,4.90
2013,03,04,10,30,4.80
2013,03,04,10,31,4.80
2013,03,04,10,32,4.80
2013,03,04,10,33,4.80
2013,03,04,10,34,4.80
2013,03,04,10,35,4.80
2013,03,04,10,36,4.80
2013,03,04,10,37,4.80
2013,03,04,10,38,4.80
2013,03,04,10,39,4.90
2013,03,04,10,40,4.90
2013,03,04,10,41,5.00
2013,03,04,10,42,5.00
2013,03,04,10,43,5.00
2013,03,04,10,44,5.10
2013,03,04,10,45,5.10
2013,03,04,10,46,5.10
2013,03,04,10,47,5.10
2013,03,04,10,48,5.10
2013,03,04,10,49,5.10
2013,03,04,10,50,5.20
2013,03,04,10,51,5.20
2013,03,04,10,52,5.20
2013,03,04,10,53,5.30
2013,03,04,10,54,5.40
2013,03,04,10,55,5.40
2013,03,04,10,56,5.50
2013,03,04,10,57,5.60
2013,03,04,10,58,5.70
2013,03,04,10,59,5.80
2013,03,04,11,00,5.90
2013,03,04,11,01,5.90
2013,03,04,11,02,6.00
2013,03,04,11,03,6.00
2013,03,04,11,04,6.00
2013,03,04,11,05,6.10
2013,03,04,11,06,6.20
2013,03,04,11,07,6.30
2013,03,04,11,08,6.40
2013,03,04,11,09,6.50
2013,03,04,11,10,6.60
2013,03,04,11,11,6.70
2013,03,04,11,12,6.80
2013,03,04,11,13,6.80
2013,03,04,11,14,6.70
2013,03,04,11,15,6.70
2013,03,04,11,16,6.50
2013,03,04,11,17,6.40
2013,03,04,11,18,6.30
2013,03,04,11,19,6.30
2013,03,04,11,20,6.20
2013,03,04,11,21,6.20
2013,03,04,11,22,6.10
2013,03,04,11,23,6.00
2013,03,04,11,24,5.90
2013,03,04,11,25,5.70
2013,03,04,11,26,5.70
2013,03,04,11,27,5.60
2013,03,04,11,28,5.50
2013,03,04,11,29,5.50
2013,03,04,11,30,5.40
2013,03,04,11,31,5.40
2013,03,04,11,32,5.30
2013,03,04,11,33,5.30
2013,03,04,11,34,5.30
2013,03,04,11,35,5.30
2013,03,04,11,36,5.30
2013,03,04,11,37,5.30
2013,03,04,11,38,5.40
2013,03,04,11,39,5.40
2013,03,04,11,40,5.40
2013,03,04,11,41,5.50
2013,03,04,11,42,5.50
2013,03,04,11,43,5.50
2013,03,04,11,44,5.60
2013,03,04,11,45,5.60
2013,03,04,11,46,5.70
2013,03,04,11,47,5.70
2013,03,04,11,48,5.70
2013,03,04,11,49,5.80
2013,03,04,11,50,5.80
2013,03,04,11,51,5.90
2013,03,04,11,52,5.90
2013,03,04,11,53,5.90
2013,03,04,11,54,5.90
2013,03,04,11,55,5.90
2013,03,04,11,56,5.90
2013,03,04,11,57,5.90
2013,03,04,11,58,6.00
2013,03,04,11,59,6.00
2013,03,04,12,00,6.10
2013,03,04,12,01,6.20
2013,03,04,12,02,6.30
2013,03,04,12,03,6.30
2013,03,04,12,04,6.30
2013,03,04,12,05,6.30
2013,03,04,12,06,6.30
2013,03,04,12,07,6.30
2013,03,04,12,08,6.30
2013,03,04,12,09,6.20
2013,03,04,12,10,6.30
2013,03,04,12,11,6.20
2013,03,04,12,12,6.20
2013,03,04,12,13,6.20
2013,03,04,12,14,6.30
2013,03,04,12,15,6.30
2013,03,04,12,16,6.30
2013,03,04,12,17,6.40
2013,03,04,12,18,6.50
2013,03,04,12,19,6.50
2013,03,04,12,20,6.50
2013,03,04,12,21,6.40
2013,03,04,12,22,6.40
2013,03,04,12,23,6.40
2013,03,04,12,24,6.40
2013,03,04,12,25,6.40
2013,03,04,12,26,6.40
2013,03,04,12,27,6.40
2013,03,04,12,28,6.40
2013,03,04,12,29,6.40
2013,03,04,12,30,6.40
2013,03,04,12,31,6.40
2013,03,04,12,32,6.40
2013,03,04,12,33,6.40
2013,03,04,12,34,6.40
2013,03,04,12,35,6.40
2013,03,04,12,36,6.40
2013,03,04,12,37,6.40
2013,03,04,12,38,6.40
2013,03,04,12,39,6.40
2013,03,04,12,40,6.40
2013,03,04,12,41,6.50
2013,03,04,12,42,6.50
2013,03,04,12,43,6.50
2013,03,04,12,44,6.50
2013,03,04,12,45,6.50
2013,03,04,12,46,6.50
2013,03,04,12,47,6.60
2013,03,04,12,48,6.60
2013,03,04,12,49,6.60
2013,03,04,12,50,6.60
2013,03,04,12,51,6.50
2013,03,04,12,52,6.50
2013,03,04,12,53,6.40
2013,03,04,12,54,6.40
2013,03,04,12,55,6.40
2013,03,04,12,56,6.40
2013,03,04,12,57,6.40
2013,03,04,12,58,6.40
2013,03,04,12,59,6.40
2013,03,04,13,00,6.40
2013,03,04,13,01,6.40
2013,03,04,13,02,6.40
2013,03,04,13,03,6.40
2013,03,04,13,04,6.40
2013,03,04,13,05,6.40
2013,03,04,13,06,6.30
2013,03,04,13,07,6.20
2013,03,04,13,08,6.20
2013,03,04,13,09,6.10
2013,03,04,13,10,6.10
2013,03,04,13,11,6.20
2013,03,04,13,12,6.20
2013,03,04,13,13,6.20
2013,03,04,13,14,6.20
2013,03,04,13,15,6.20
2013,03,04,13,16,6.20
2013,03,04,13,17,6.10
2013,03,04,13,18,6.10
2013,03,04,13,19,6.10
2013,03,04,13,20,6.10
2013,03,04,13,21,6.10
2013,03,04,13,22,6.10
2013,03,04,13,23,6.10
2013,03,04,13,24,6.10
2013,03,04,13,25,6.10
2013,03,04,13,26,6.10
2013,03,04,13,27,6.10
2013,03,04,13,28,6.10
2013,03,04,13,29,6.10
2013,03,04,13,30,6.10
2013,03,04,13,31,6.20
2013,03,04,13,32,6.20
2013,03,04,13,33,6.20
2013,03,04,13,34,6.30
2013,03,04,13,35,6.30
2013,03,04,13,36,6.20
2013,03,04,13,37,6.10
2013,03,04,13,38,6.10
2013,03,04,13,39,6.00
2013,03,04,13,40,6.00
2013,03,04,13,41,6.10
2013,03,04,13,42,6.10
2013,03,04,13,43,6.10
2013,03,04,13,44,6.10
2013,03,04,13,45,6.10
2013,03,04,13,46,6.10
2013,03,04,13,47,6.10
2013,03,04,13,48,6.10
2013,03,04,13,49,6.10
2013,03,04,13,50,6.20
2013,03,04,13,51,6.30
2013,03,04,13,52,6.30
2013,03,04,13,53,6.40
2013,03,04,13,54,6.50
2013,03,04,13,55,6.60
2013,03,04,13,56,6.70
2013,03,04,13,57,6.70
2013,03,04,13,58,6.80
2013,03,04,13,59,6.80
2013,03,04,14,00,6.80
2013,03,04,14,01,6.70
2013,03,04,14,02,6.60
2013,03,04,14,03,6.60
2013,03,04,14,04,6.50
2013,03,04,14,05,6.50
2013,03,04,14,06,6.40
2013,03,04,14,07,6.40
2013,03,04,14,08,6.40
2013,03,04,14,09,6.30
2013,03,04,14,10,6.30
2013,03,04,14,11,6.30
2013,03,04,14,12,6.30
2013,03,04,14,13,6.30
2013,03,04,14,14,6.30
2013,03,04,14,15,6.40
2013,03,04,14,16,6.50
2013,03,04,14,17,6.50
2013,03,04,14,18,6.60
2013,03,04,14,19,6.70
2013,03,04,14,20,6.70
2013,03,04,14,21,6.70
2013,03,04,14,22,6.80
2013,03,04,14,23,6.80
2013,03,04,14,24,6.80
2013,03,04,14,25,6.80
2013,03,04,14,26,6.80
2013,03,04,14,27,6.90
2013,03,04,14,28,6.80
2013,03,04,14,29,6.80
2013,03,04,14,30,6.80
2013,03,04,14,31,6.80
2013,03,04,14,32,6.80
2013,03,04,14,33,6.80
2013,03,04,14,34,6.90
2013,03,04,14,35,6.90
2013,03,04,14,36,6.90
2013,03,04,14,37,6.80
2013,03,04,14,38,6.80
2013,03,04,14,39,6.80
2013,03,04,14,40,6.80
2013,03,04,14,41,6.80
2013,03,04,14,42,6.80
2013,03,04,14,43,6.70
2013,03,04,14,44,6.70
2013,03,04,14,45,6.70
2013,03,04,14,46,6.70
2013,03,04,14,47,6.70
2013,03,04,14,48,6.70
2013,03,04,14,49,6.70
2013,03,04,14,50,6.80
2013,03,04,14,51,6.80
2013,03,04,14,52,6.80
2013,03,04,14,53,6.80
2013,03,04,14,54,6.80
2013,03,04,14,55,6.80
2013,03,04,14,56,6.80
2013,03,04,14,57,6.80
2013,03,04,14,58,6.80
2013,03,04,14,59,6.80
2013,03,04,15,00,6.90
2013,03,04,15,01,6.90
2013,03,04,15,02,6.90
2013,03,04,15,03,6.90
2013,03,04,15,04,6.90
2013,03,04,15,05,6.90
2013,03,04,15,06,6.90
2013,03,04,15,07,7.00
2013,03,04,15,08,7.00
2013,03,04,15,09,7.00
2013,03,04,15,10,7.10
2013,03,04,15,11,7.10
2013,03,04,15,12,7.10
2013,03,04,15,13,7.10
2013,03,04,15,14,7.10
2013,03,04,15,15,7.10
2013,03,04,15,16,7.00
2013,03,04,15,17,7.00
2013,03,04,15,18,6.90
2013,03,04,15,19,6.90
2013,03,04,15,20,6.90
2013,03,04,15,21,6.90
2013,03,04,15,22,6.80
2013,03,04,15,23,6.80
2013,03,04,15,24,6.80
2013,03,04,15,25,6.70
2013,03,04,15,26,6.70
2013,03,04,15,27,6.70
2013,03,04,15,28,6.60
2013,03,04,15,29,6.60
2013,03,04,15,30,6.60
2013,03,04,15,31,6.50
2013,03,04,15,32,6.50
2013,03,04,15,33,6.50
2013,03,04,15,34,6.50
2013,03,04,15,35,6.50
2013,03,04,15,36,6.50
2013,03,04,15,37,6.50
2013,03,04,15,38,6.50
2013,03,04,15,39,6.40
2013,03,04,15,40,6.40
2013,03,04,15,41,6.30
2013,03,04,15,42,6.20
2013,03,04,15,43,6.20
2013,03,04,15,44,6.20
2013,03,04,15,45,6.10
2013,03,04,15,46,6.10
2013,03,04,15,47,6.00
2013,03,04,15,48,6.00
2013,03,04,15,49,5.90
2013,03,04,15,50,5.90
2013,03,04,15,51,5.90
2013,03,04,15,52,5.90
2013,03,04,15,53,5.90
2013,03,04,15,54,5.90
2013,03,04,15,55,5.90
2013,03,04,15,56,5.90
2013,03,04,15,57,5.90
2013,03,04,15,58,5.90
2013,03,04,15,59,5.90
2013,03,04,16,00,6.00
2013,03,04,16,01,6.00
2013,03,04,16,02,6.00
2013,03,04,16,03,6.00
2013,03,04,16,04,6.00
2013,03,04,16,05,6.00
2013,03,04,16,06,6.00
2013,03,04,16,07,5.90
2013,03,04,16,08,5.90
2013,03,04,16,09,5.90
2013,03,04,16,10,5.90
2013,03,04,16,11,5.90
2013,03,04,16,12,5.90
2013,03,04,16,13,5.90
2013,03,04,16,14,5.90
2013,03,04,16,15,5.90
2013,03,04,16,16,5.90
2013,03,04,16,17,5.90
2013,03,04,16,18,5.90
2013,03,04,16,19,5.90
2013,03,04,16,20,5.90
2013,03,04,16,21,5.90
2013,03,04,16,22,5.90
2013,03,04,16,23,5.90
2013,03,04,16,24,5.90
2013,03,04,16,25,5.90
2013,03,04,16,26,5.90
2013,03,04,16,27,5.90
2013,03,04,16,28,5.90
2013,03,04,16,29,5.80
2013,03,04,16,30,5.80
2013,03,04,16,31,5.80
2013,03,04,16,32,5.80
2013,03,04,16,33,5.80
2013,03,04,16,34,5.70
2013,03,04,16,35,5.70
2013,03,04,16,36,5.70
2013,03,04,16,37,5.70
2013,03,04,16,38,5.70
2013,03,04,16,39,5.70
2013,03,04,16,40,5.70
2013,03,04,16,41,5.70
2013,03,04,16,42,5.70
2013,03,04,16,43,5.70
2013,03,04,16,44,5.70
2013,03,04,16,45,5.60
2013,03,04,16,46,5.60
2013,03,04,16,47,5.60
2013,03,04,16,48,5.60
2013,03,04,16,49,5.60
2013,03,04,16,50,5.60
2013,03,04,16,51,5.60
2013,03,04,16,52,5.60
2013,03,04,16,53,5.60
2013,03,04,16,54,5.60
2013,03,04,16,55,5.60
2013,03,04,16,56,5.50
2013,03,04,16,57,5.60
2013,03,04,16,58,5.50
2013,03,04,16,59,5.50
2013,03,04,17,00,5.50
2013,03,04,17,01,5.50
2013,03,04,17,02,5.50
2013,03,04,17,03,5.50
2013,03,04,17,04,5.50
2013,03,04,17,05,5.50
2013,03,04,17,06,5.50
2013,03,04,17,07,5.50
2013,03,04,17,08,5.50
2013,03,04,17,09,5.50
2013,03,04,17,10,5.40
2013,03,04,17,11,5.40
2013,03,04,17,12,5.40
2013,03,04,17,13,5.40
2013,03,04,17,14,5.40
2013,03,04,17,15,5.30
2013,03,04,17,16,5.30
2013,03,04,17,17,5.30
2013,03,04,17,18,5.30
2013,03,04,17,19,5.30
2013,03,04,17,20,5.30
2013,03,04,17,21,5.30
2013,03,04,17,22,5.30
2013,03,04,17,23,5.30
2013,03,04,17,24,5.30
2013,03,04,17,25,5.20
2013,03,04,17,26,5.20
2013,03,04,17,27,5.20
2013,03,04,17,28,5.20
2013,03,04,17,29,5.20
2013,03,04,17,30,5.20
2013,03,04,17,31,5.10
2013,03,04,17,32,5.10
2013,03,04,17,33,5.10
2013,03,04,17,34,5.10
2013,03,04,17,35,5.10
2013,03,04,17,36,5.10
2013,03,04,17,37,5.10
2013,03,04,17,38,5.00
2013,03,04,17,39,5.00
2013,03,04,17,40,5.00
2013,03,04,17,41,4.90
2013,03,04,17,42,4.90
2013,03,04,17,43,4.90
2013,03,04,17,44,4.90
2013,03,04,17,45,4.90
2013,03,04,17,46,4.80
2013,03,04,17,47,4.80
2013,03,04,17,48,4.80
2013,03,04,17,49,4.80
2013,03,04,17,50,4.70
2013,03,04,17,51,4.70
2013,03,04,17,52,4.70
2013,03,04,17,53,4.70
2013,03,04,17,54,4.70
2013,03,04,17,55,4.60
2013,03,04,17,56,4.60
2013,03,04,17,57,4.60
2013,03,04,17,58,4.60
2013,03,04,17,59,4.50
2013,03,04,18,00,4.50
2013,03,04,18,01,4.40
2013,03,04,18,02,4.40